カタログに戻る

STARLINK-30778

運用中通信VLEO
NORAD 58182·PAYLOAD·🇺🇸 United States

打ち上げ Oct 30, 2023 から Cape Canaveral Space Force Station

Loading…

次のパス (今後24時間)

TLE

最新Source: CelesTrak SupGP

元期: Sep 14, 2026, 21:00 UTC

1 58182C 23167H   26257.87548611 -.00037731  00000+0 -13668-2 0  2570
2 58182  43.0024 154.8784 0001442 261.2497 319.3232 15.27593035    12

AllMySatでSTARLINK-30778をリアルタイム追跡

Download on the App Store